| time (UTC) | temp F | wind direction | speed MPH | gust MPH | rain 1hr in | rain 24hr in | rain mn in | humidity % | barometer mb |
| 20260901235505 | 64 | 7 | 1.0 | 3.0 | 0.00 | 0.00 | 0.00 | 73 | 1002.4 |
| 20260901234503 | 65 | 1 | 0.0 | 4.0 | 0.00 | 0.00 | 0.00 | 72 | 1002.4 |
| 20260901233003 | 64 | 16 | 4.0 | 4.0 | 0.00 | 0.00 | 0.00 | 71 | 1002.4 |
| 20260901231514 | 65 | 34 | 4.0 | 4.0 | 0.00 | 0.00 | 0.00 | 70 | 1002.4 |
| 20260901230004 | 65 | 24 | 0.0 | 3.0 | 0.00 | 0.00 | 0.00 | 70 | 1002.4 |
| 20260901224504 | 65 | 83 | 5.0 | 5.0 | 0.00 | 0.00 | 0.00 | 72 | 1002.4 |
| 20260901221503 | 66 | 39 | 2.0 | 4.0 | 0.00 | 0.00 | 0.00 | 70 | 1002.7 |
| 20260901220005 | 66 | 50 | 4.0 | 4.0 | 0.00 | 0.00 | 0.00 | 71 | 1002.7 |
| 20260901214503 | 66 | 56 | 2.0 | 4.0 | 0.00 | 0.00 | 0.00 | 70 | 1002.7 |
| 20260901211503 | 66 | 69 | 1.0 | 2.0 | 0.00 | 0.00 | 0.00 | 65 | 1002.4 |
| 20260901210503 | 67 | 356 | 0.0 | 7.0 | 0.00 | 0.00 | 0.00 | 64 | 1002.4 |
| 20260901205004 | 67 | 344 | 3.0 | 7.0 | 0.00 | 0.00 | 0.00 | 64 | 1002.4 |
| 20260901202503 | 66 | 68 | 3.0 | 6.0 | 0.00 | 0.00 | 0.00 | 66 | 1002.7 |
| 20260901195504 | 67 | 29 | 2.0 | 4.0 | 0.00 | 0.00 | 0.00 | 69 | 1002.7 |
| 20260901194503 | 67 | 103 | 2.0 | 3.0 | 0.00 | 0.00 | 0.00 | 69 | 1002.7 |
| 20260901193003 | 66 | 47 | 1.0 | 3.0 | 0.00 | 0.00 | 0.00 | 69 | 1002.7 |
| 20260901191502 | 64 | 70 | 1.0 | 4.0 | 0.00 | 0.00 | 0.00 | 74 | 1002.7 |
| 20260901184503 | 64 | 359 | 0.0 | 2.0 | 0.00 | 0.00 | 0.00 | 77 | 1003.0 |
| 20260901183004 | 63 | 50 | 0.0 | 1.0 | 0.00 | 0.00 | 0.00 | 78 | 1003.0 |
| 20260901181503 | 62 | 357 | 0.0 | 1.0 | 0.00 | 0.00 | 0.00 | 81 | 1002.7 |
| 20260901180004 | 62 | 308 | 0.0 | 2.0 | 0.00 | 0.00 | 0.00 | 82 | 1003.0 |
| 20260901174504 | 61 | 359 | 0.0 | 0.0 | 0.00 | 0.00 | 0.00 | 84 | 1002.7 |
| 20260901171505 | 60 | 58 | 0.0 | 0.0 | 0.00 | 0.00 | 0.00 | 87 | 1002.4 |
| 20260901170004 | 60 | 4 | 0.0 | 0.0 | 0.00 | 0.00 | 0.00 | 90 | 1002.4 |
| 20260901164503 | 59 | 357 | 0.0 | 0.0 | 0.00 | 0.00 | 0.00 | 91 | 1002.4 |
| 20260901163003 | 59 | 337 | 0.0 | 0.0 | 0.00 | 0.00 | 0.00 | 91 | 1002.4 |
| 20260901153005 | 56 | 348 | 0.0 | 0.0 | 0.00 | 0.00 | 0.00 | 91 | 1002.0 |
| 20260901152003 | 56 | 349 | 0.0 | 0.0 | 0.00 | 0.00 | 0.00 | 91 | 1002.0 |
| 20260901143003 | 54 | 354 | 0.0 | 0.0 | 0.00 | 0.00 | 0.00 | 90 | 1001.4 |
| 20260901140003 | 54 | 4 | 0.0 | 0.0 | 0.00 | 0.00 | 0.00 | 89 | 1001.0 |
| 20260901134503 | 54 | 12 | 0.0 | 0.0 | 0.00 | 0.00 | 0.00 | 89 | 1000.7 |
| 20260901133004 | 54 | 3 | 0.0 | 0.0 | 0.00 | 0.00 | 0.00 | 89 | 1000.7 |
| 20260901131503 | 54 | 5 | 0.0 | 0.0 | 0.00 | 0.00 | 0.00 | 89 | 1000.3 |
| 20260901130006 | 53 | 0 | 0.0 | 0.0 | 0.00 | 0.00 | 0.00 | 89 | 1000.3 |
| 20260901124504 | 53 | 359 | 0.0 | 0.0 | 0.00 | 0.00 | 0.00 | 89 | 1000.3 |
| 20260901123004 | 53 | 359 | 0.0 | 0.0 | 0.00 | 0.00 | 0.00 | 89 | 1000.0 |
| 20260901121505 | 53 | 357 | 0.0 | 0.0 | 0.00 | 0.00 | 0.00 | 89 | 1000.0 |
| 20260901114503 | 52 | 22 | 0.0 | 0.0 | 0.00 | 0.00 | 0.00 | 90 | 1000.3 |
| 20260901113003 | 52 | 357 | 0.0 | 0.0 | 0.00 | 0.00 | 0.00 | 90 | 1000.3 |
| 20260901111503 | 52 | 1 | 0.0 | 0.0 | 0.00 | 0.00 | 0.00 | 90 | 1000.3 |
| 20260901110004 | 52 | 347 | 0.0 | 0.0 | 0.00 | 0.00 | 0.00 | 90 | 1000.7 |
| 20260901103016 | 51 | 11 | 0.0 | 0.0 | 0.00 | 0.00 | 0.00 | 90 | 1000.3 |
| 20260901101504 | 51 | 12 | 0.0 | 0.0 | 0.00 | 0.00 | 0.00 | 90 | 1000.3 |
| 20260901094503 | 51 | 9 | 0.0 | 0.0 | 0.00 | 0.00 | 0.00 | 90 | 1000.3 |
| 20260901093003 | 51 | 5 | 0.0 | 0.0 | 0.00 | 0.00 | 0.00 | 89 | 1000.0 |
| 20260901090004 | 52 | 17 | 0.0 | 0.0 | 0.00 | 0.00 | 0.00 | 89 | 1000.0 |
| 20260901084503 | 52 | 9 | 0.0 | 0.0 | 0.00 | 0.00 | 0.00 | 89 | 1000.0 |
| 20260901083003 | 53 | 5 | 0.0 | 0.0 | 0.00 | 0.00 | 0.00 | 89 | 1000.0 |
| 20260901081504 | 53 | 15 | 0.0 | 0.0 | 0.00 | 0.00 | 0.00 | 89 | 1000.0 |
| 20260901080004 | 53 | 41 | 0.0 | 0.0 | 0.00 | 0.00 | 0.00 | 89 | 1000.0 |
| 20260901074503 | 54 | 21 | 0.0 | 0.0 | 0.00 | 0.00 | 0.00 | 89 | 1000.0 |
| 20260901073004 | 54 | 30 | 0.0 | 0.0 | 0.00 | 0.00 | 0.00 | 88 | 1000.0 |
| 20260901071505 | 55 | 8 | 0.0 | 0.0 | 0.00 | 0.00 | 0.00 | 88 | 999.7 |
| 20260901063005 | 56 | 325 | 0.0 | 0.0 | 0.00 | 0.00 | 0.00 | 87 | 999.7 |
| 20260901062003 | 56 | 324 | 0.0 | 0.0 | 0.00 | 0.00 | 0.00 | 88 | 999.7 |
| 20260901060503 | 56 | 23 | 0.0 | 0.0 | 0.00 | 0.00 | 0.00 | 87 | 1000.0 |
| 20260901055004 | 57 | 16 | 0.0 | 0.0 | 0.00 | 0.00 | 0.00 | 86 | 1000.0 |
| 20260901051002 | 58 | 358 | 0.0 | 0.0 | 0.00 | 0.00 | 0.00 | 85 | 1000.0 |
| 20260901045503 | 58 | 52 | 0.0 | 0.0 | 0.00 | 0.00 | 0.00 | 85 | 1000.0 |
| 20260901044505 | 58 | 1 | 0.0 | 2.0 | 0.00 | 0.00 | 0.00 | 85 | 1000.0 |
| 20260901043004 | 58 | 37 | 0.0 | 2.0 | 0.00 | 0.00 | 0.00 | 85 | 999.7 |
| 20260901041503 | 58 | 70 | 3.0 | 3.0 | 0.00 | 0.00 | 0.00 | 85 | 999.7 |
| 20260901040004 | 58 | 50 | 1.0 | 1.0 | 0.00 | 0.00 | 0.00 | 85 | 999.3 |
| 20260901034503 | 58 | 41 | 1.0 | 2.0 | 0.00 | 0.00 | 0.00 | 85 | 999.0 |
| 20260901033003 | 58 | 12 | 0.0 | 3.0 | 0.00 | 0.00 | 0.00 | 85 | 999.3 |
| 20260901031503 | 58 | 31 | 0.0 | 0.0 | 0.00 | 0.00 | 0.00 | 85 | 999.0 |
| 20260901030004 | 59 | 25 | 0.0 | 2.0 | 0.00 | 0.00 | 0.00 | 85 | 999.0 |
| 20260901024503 | 59 | 59 | 3.0 | 3.0 | 0.00 | 0.00 | 0.00 | 84 | 999.0 |
| 20260901021503 | 59 | 15 | 1.0 | 3.0 | 0.00 | 0.00 | 0.00 | 83 | 999.0 |
| 20260901020005 | 60 | 31 | 0.0 | 4.0 | 0.00 | 0.00 | 0.00 | 82 | 998.6 |
| 20260901011503 | 61 | 53 | 0.0 | 3.0 | 0.00 | 0.00 | 0.00 | 79 | 998.6 |
| 20260901010004 | 61 | 72 | 2.0 | 4.0 | 0.00 | 0.00 | 0.00 | 77 | 998.6 |
| 20260901003004 | 63 | 346 | 1.0 | 4.0 | 0.00 | 0.00 | 0.00 | 76 | 998.6 |
| 20260901001504 | 63 | 53 | 2.0 | 3.0 | 0.00 | 0.00 | 0.00 | 75 | 998.6 |